This is the latest recevied weather packets stored in our database for station/object IW7DVM-13. If no packets are shown the sender has not sent any weather packets the latest 10 day(s).
| Time | Temp. | Humidity | Pressure | Rain* | Wind** | Luminosity | Snow |
|---|---|---|---|---|---|---|---|
| 1777829103 | 22.78° C | 37% | 1011.7 hPa | 0 mm | - | - | - |
| 1777828803 | 22.78° C | 37% | 1011.8 hPa | 0 mm | - | - | - |
| 1777828503 | 23.33° C | 36% | 1011.8 hPa | 0 mm | - | - | - |
| 1777828203 | 23.33° C | 35% | 1011.7 hPa | 0 mm | - | - | - |
| 1777827903 | 23.33° C | 35% | 1011.7 hPa | 0 mm | - | - | - |
| 1777827603 | 23.33° C | 34% | 1011.5 hPa | 0 mm | - | - | - |
| 1777827303 | 23.33° C | 34% | 1011.7 hPa | 0 mm | - | - | - |
| 1777827003 | 23.33° C | 34% | 1011.4 hPa | 0 mm | - | - | - |
| 1777826703 | 23.33° C | 34% | 1011.6 hPa | 0 mm | - | - | - |
| 1777826403 | 23.89° C | 34% | 1011.6 hPa | 0 mm | - | - | - |
| 1777826103 | 23.89° C | 33% | 1011.7 hPa | 0 mm | - | - | - |
| 1777825803 | 23.89° C | 33% | 1011.7 hPa | 0 mm | - | - | - |
| 1777825503 | 24.44° C | 33% | 1011.6 hPa | 0 mm | - | - | - |
| 1777825203 | 24.44° C | 32% | 1011.6 hPa | 0 mm | - | - | - |
| 1777824903 | 25° C | 32% | 1011.7 hPa | 0 mm | - | - | - |
| 1777824303 | 24.44° C | 33% | 1011.6 hPa | 0 mm | - | - | - |
| 1777824003 | 24.44° C | 33% | 1011.7 hPa | 0 mm | - | - | - |
| 1777823703 | 24.44° C | 33% | 1011.6 hPa | 0 mm | - | - | - |
| 1777823403 | 24.44° C | 32% | 1011.6 hPa | 0 mm | - | - | - |
| 1777823103 | 24.44° C | 32% | 1011.6 hPa | 0 mm | - | - | - |
| 1777822803 | 24.44° C | 32% | 1011.6 hPa | 0 mm | - | - | - |
| 1777822503 | 25° C | 33% | 1011.6 hPa | 0 mm | - | - | - |
| 1777822203 | 25° C | 33% | 1011.7 hPa | 0 mm | - | - | - |
| 1777821903 | 25° C | 34% | 1011.8 hPa | 0 mm | - | - | - |
| 1777821603 | 25.56° C | 33% | 1011.9 hPa | 0 mm | - | - | - |
* Rain latest hour (hover to see other rain measurements)
** Current wind speed in m/s (hover to see current wind gust speed)